Overview Statistics Trail Chart Weather Telemetry Raw packets
 

This is the latest recevied weather packets stored in our database for station/object NR0A-4. If no packets are shown the sender has not sent any weather packets the latest 10 day(s).

<< 108 109 110 111 112 113 114 >>
Time Temp. Humidity Pressure Rain* Wind** Luminosity Snow
1787843704 22.22° C 73% 1021.1 hPa 0 mm - 520 W/m² -
1787843405 22.22° C 74% 1021 hPa 0 mm - 499 W/m² -
1787843104 22.22° C 75% 1021 hPa 0 mm - 490 W/m² -
1787842804 21.67° C 77% 1021 hPa 0 mm - 478 W/m² -
1787842504 21.11° C 80% 1021 hPa 0 mm - 461 W/m² -
1787842204 21.11° C 78% 1020.9 hPa 0 mm - 452 W/m² -
1787841905 20.56° C 79% 1020.9 hPa 0 mm - 439 W/m² -
1787841604 20.56° C 82% 1021 hPa 0 mm - 427 W/m² -
1787841304 20° C 83% 1021 hPa 0 mm - 417 W/m² -
1787841004 20° C 85% 1021 hPa 0 mm - 403 W/m² -
1787840704 19.44° C 86% 1020.9 hPa 0 mm - 374 W/m² -
1787840405 18.89° C 87% 1020.9 hPa 0 mm - 350 W/m² -
1787840104 18.33° C 88% 1021 hPa 0 mm - 334 W/m² -
1787839811 17.78° C 89% 1021.1 hPa 0 mm - 318 W/m² -
1787839505 17.78° C 91% 1021.1 hPa 0 mm - 295 W/m² -
1787839204 17.22° C 92% 1021.1 hPa 0 mm - 167 W/m² -
1787838904 16.67° C 93% 1021 hPa 0 mm - 76 W/m² -
1787838604 16.11° C 93% 1021 hPa 0 mm - 47 W/m² -
1787838304 16.11° C 93% 1021 hPa 0 mm - 46 W/m² -
1787838005 15.56° C 92% 1021 hPa 0 mm - 44 W/m² -
1787837705 15.56° C 92% 1021 hPa 0 mm - 44 W/m² -
1787837404 15.56° C 92% 1021 hPa 0 mm - 40 W/m² -
1787837105 15.56° C 92% 1021 hPa 0 mm - 37 W/m² -
1787836805 15° C 92% 1021 hPa 0 mm - 35 W/m² -
1787836504 15° C 92% 1021 hPa 0 mm - 39 W/m² -

* Rain latest hour (hover to see other rain measurements)
** Current wind speed in m/s (hover to see current wind gust speed)